User: anonymous   Login
Location: Axtheid
(49.6213°N, 11.8205°E)
Time: 20:54:42
(UTC+00:00)
Language:

CSL-04 DEB - Orbit

View from above orbital plane
View from above orbital plane
View from above satellite
View from above satellite

Ground track
Ground track

The orbit data is extracted from the following two-line orbital elements,

1 26121U 99057H   21104.53828334  .00000670  00000-0  68122-4 0  9992
2 26121  98.7587 295.3207 0058141 315.2243  44.4289 14.93754392142527
Epoch (UTC): 14 April 2021 12:55:07
Eccentricity: 0.0058141
inclination: 98.7587°
perigee height: 546 km
apogee height: 627 km
right ascension of ascending node: 295.3207°
argument of perigee: 315.2243°
revolutions per day: 14.93754392
mean anomaly at epoch: 44.4289°
orbit number at epoch: 14252

The dashed part of the orbit path shows where the satellite is in the earth's shadow,  

DLR